When you browse on this site, cookies collect data to enhance your experience and personalize the content and advertising you see.
Visit our Privacy Policy to learn more. By continuing to use the site, you agree to this use of cookies and data.

Stündliche Wetter Halushky

Heute, 14 Juli, Dienstag

Zeit Temperatur Niederschläge Wind Luftdruck Luftfeuchtigkeit
00:00 +15°C° 0 mm 5 m/S 740 mmHg 85%
01:00 +15°C° 0 mm 5 m/S 740 mmHg 85%
02:00 +14°C° 0 mm 5 m/S 740 mmHg 80%
03:00 +14°C° 0.1 mm 5 m/S 740 mmHg 82%
04:00 +14°C° 0.1 mm 5 m/S 740 mmHg 84%
05:00 +14°C° 0.1 mm 5 m/S 739 mmHg 86%
06:00 +13°C° 0.6 mm 5 m/S 739 mmHg 89%
07:00 +13°C° 0.6 mm 5 m/S 739 mmHg 91%
08:00 +13°C° 0 mm 6 m/S 739 mmHg 96%
09:00 +13°C° 0.3 mm 5 m/S 739 mmHg 95%
10:00 +14°C° 0.3 mm 5 m/S 739 mmHg 95%
11:00 +14°C° 0.3 mm 5 m/S 739 mmHg 94%
12:00 +14°C° 0.7 mm 5 m/S 739 mmHg 95%
13:00 +14°C° 0.7 mm 5 m/S 739 mmHg 95%
14:00 +15°C° 0 mm 6 m/S 738 mmHg 96%
15:00 +15°C° 1.6 mm 6 m/S 738 mmHg 96%
16:00 +14°C° 1.6 mm 7 m/S 738 mmHg 95%
17:00 +14°C° 1.6 mm 7 m/S 738 mmHg 95%
18:00 +14°C° 1.5 mm 7 m/S 738 mmHg 95%
19:00 +14°C° 1.5 mm 7 m/S 738 mmHg 95%
20:00 +14°C° 1.5 mm 7 m/S 738 mmHg 95%
21:00 +14°C° 0.4 mm 7 m/S 738 mmHg 95%
22:00 +14°C° 0.4 mm 6 m/S 738 mmHg 95%
23:00 +14°C° 0.4 mm 6 m/S 738 mmHg 95%

Morgen, 15 Juli, Mittwoch

Zeit Temperatur Niederschläge Wind Luftdruck Luftfeuchtigkeit
00:00 +14°C° 0.4 mm 7 m/S 739 mmHg 95%
01:00 +14°C° 0.4 mm 7 m/S 739 mmHg 94%
02:00 +14°C° 0.4 mm 7 m/S 739 mmHg 94%
03:00 +13°C° 0.2 mm 6 m/S 739 mmHg 94%
04:00 +13°C° 0.2 mm 6 m/S 740 mmHg 94%
05:00 +13°C° 0.2 mm 5 m/S 740 mmHg 93%
06:00 +13°C° 0 mm 6 m/S 740 mmHg 90%
07:00 +14°C° 0 mm 6 m/S 740 mmHg 87%
08:00 +15°C° 0 mm 7 m/S 741 mmHg 83%
09:00 +16°C° 0.1 mm 7 m/S 741 mmHg 77%
10:00 +17°C° 0.1 mm 7 m/S 741 mmHg 70%
11:00 +18°C° 0.1 mm 8 m/S 741 mmHg 64%
12:00 +18°C° 0.2 mm 7 m/S 742 mmHg 65%
13:00 +18°C° 0.2 mm 7 m/S 742 mmHg 67%
14:00 +18°C° 0.2 mm 7 m/S 743 mmHg 68%
15:00 +19°C° 0.1 mm 6 m/S 743 mmHg 69%
16:00 +19°C° 0.1 mm 5 m/S 743 mmHg 70%
17:00 +17°C° 0.1 mm 5 m/S 743 mmHg 72%
18:00 +17°C° 0 mm 3 m/S 743 mmHg 77%
19:00 +15°C° 0 mm 2 m/S 743 mmHg 81%
20:00 +13°C° 0 mm 1 m/S 744 mmHg 86%
21:00 +13°C° 0 mm 1 m/S 744 mmHg 86%
22:00 +13°C° 0 mm 2 m/S 744 mmHg 86%
23:00 +12°C° 0 mm 2 m/S 744 mmHg 86%

übermorgen, 16 Juli, Donnerstag

Zeit Temperatur Niederschläge Wind Luftdruck Luftfeuchtigkeit
00:00 +12°C° 0 mm 2 m/S 744 mmHg 87%
01:00 +12°C° 0 mm 2 m/S 744 mmHg 87%
02:00 +12°C° 0 mm 2 m/S 744 mmHg 87%
03:00 +12°C° 0 mm 2 m/S 744 mmHg 87%
04:00 +12°C° 0 mm 2 m/S 744 mmHg 86%
05:00 +12°C° 0 mm 2 m/S 744 mmHg 85%
06:00 +14°C° 0 mm 2 m/S 744 mmHg 80%
07:00 +16°C° 0 mm 2 m/S 744 mmHg 74%
08:00 +18°C° 0 mm 3 m/S 744 mmHg 68%
09:00 +19°C° 0 mm 3 m/S 744 mmHg 65%
10:00 +20°C° 0 mm 3 m/S 744 mmHg 61%
11:00 +21°C° 0 mm 3 m/S 744 mmHg 58%
12:00 +21°C° 0 mm 3 m/S 744 mmHg 57%
13:00 +22°C° 0 mm 3 m/S 744 mmHg 56%
14:00 +22°C° 0 mm 4 m/S 744 mmHg 56%
15:00 +22°C° 0 mm 3 m/S 744 mmHg 57%
16:00 +22°C° 0 mm 3 m/S 744 mmHg 59%
17:00 +22°C° 0 mm 3 m/S 744 mmHg 60%
18:00 +20°C° 0 mm 2 m/S 744 mmHg 66%
19:00 +19°C° 0 mm 1 m/S 744 mmHg 72%
20:00 +16°C° 0 mm 1 m/S 744 mmHg 78%
21:00 +15°C° 0 mm 1 m/S 744 mmHg 79%
22:00 +14°C° 0 mm 0 m/S 744 mmHg 81%
23:00 +13°C° 0 mm 0 m/S 744 mmHg 82%

17 Juli, Freitag

Zeit Temperatur Niederschläge Wind Luftdruck Luftfeuchtigkeit
00:00 +13°C° 0 mm 0 m/S 744 mmHg 82%
01:00 +13°C° 0 mm 0 m/S 744 mmHg 83%
02:00 +13°C° 0 mm 1 m/S 744 mmHg 83%
03:00 +14°C° 0 mm 1 m/S 744 mmHg 83%
04:00 +13°C° 0 mm 0 m/S 744 mmHg 82%
05:00 +13°C° 0 mm 0 m/S 744 mmHg 81%
06:00 +15°C° 0 mm 0 m/S 744 mmHg 76%
07:00 +19°C° 0 mm 1 m/S 745 mmHg 70%
08:00 +21°C° 0 mm 1 m/S 745 mmHg 64%
09:00 +22°C° 0 mm 1 m/S 745 mmHg 60%
10:00 +22°C° 0 mm 0 m/S 745 mmHg 56%
11:00 +23°C° 0 mm 0 m/S 745 mmHg 52%
12:00 +23°C° 0 mm 0 m/S 745 mmHg 51%
13:00 +24°C° 0 mm 0 m/S 745 mmHg 49%
14:00 +24°C° 0 mm 0 m/S 745 mmHg 47%
15:00 +24°C° 0 mm 0 m/S 745 mmHg 49%
16:00 +24°C° 0 mm 0 m/S 745 mmHg 50%
17:00 +24°C° 0 mm 0 m/S 745 mmHg 52%
18:00 +22°C° 0 mm 0 m/S 745 mmHg 56%
19:00 +20°C° 0 mm 0 m/S 745 mmHg 61%
20:00 +20°C° 0 mm 1 m/S 745 mmHg 66%
21:00 +19°C° 0 mm 1 m/S 745 mmHg 67%
22:00 +19°C° 0 mm 1 m/S 745 mmHg 69%
23:00 +18°C° 0 mm 1 m/S 746 mmHg 70%

18 Juli, Samstag

Zeit Temperatur Niederschläge Wind Luftdruck Luftfeuchtigkeit
00:00 +18°C° 0 mm 1 m/S 746 mmHg 70%
01:00 +16°C° 0 mm 1 m/S 746 mmHg 71%
02:00 +16°C° 0 mm 1 m/S 746 mmHg 71%
03:00 +16°C° 0 mm 1 m/S 746 mmHg 72%
04:00 +16°C° 0 mm 1 m/S 746 mmHg 73%
05:00 +16°C° 0 mm 1 m/S 746 mmHg 74%
06:00 +19°C° 0 mm 1 m/S 747 mmHg 71%
07:00 +20°C° 0 mm 2 m/S 747 mmHg 67%
08:00 +21°C° 0 mm 2 m/S 747 mmHg 63%
09:00 +23°C° 0 mm 2 m/S 747 mmHg 60%
10:00 +25°C° 0 mm 2 m/S 747 mmHg 56%
11:00 +26°C° 0 mm 2 m/S 747 mmHg 52%
12:00 +26°C° 0 mm 2 m/S 747 mmHg 51%
13:00 +27°C° 0 mm 2 m/S 747 mmHg 49%
14:00 +27°C° 0 mm 2 m/S 747 mmHg 48%
15:00 +27°C° 0 mm 2 m/S 747 mmHg 50%
16:00 +27°C° 0 mm 1 m/S 747 mmHg 53%
17:00 +27°C° 0 mm 1 m/S 747 mmHg 56%
18:00 +25°C° 0 mm 1 m/S 747 mmHg 59%
19:00 +23°C° 0 mm 1 m/S 747 mmHg 62%
20:00 +21°C° 0 mm 1 m/S 747 mmHg 65%
21:00 +20°C° 0 mm 1 m/S 747 mmHg 67%
22:00 +19°C° 0 mm 2 m/S 747 mmHg 69%
23:00 +18°C° 0 mm 2 m/S 747 mmHg 71%

19 Juli, Sonntag

Zeit Temperatur Niederschläge Wind Luftdruck Luftfeuchtigkeit
00:00 +18°C° 0 mm 2 m/S 747 mmHg 72%
01:00 +18°C° 0 mm 2 m/S 747 mmHg 73%
02:00 +17°C° 0 mm 2 m/S 747 mmHg 75%
03:00 +17°C° 0 mm 2 m/S 747 mmHg 76%
04:00 +17°C° 0 mm 2 m/S 747 mmHg 78%
05:00 +17°C° 0 mm 2 m/S 747 mmHg 80%
06:00 +19°C° 0 mm 2 m/S 747 mmHg 75%
07:00 +21°C° 0 mm 2 m/S 747 mmHg 71%
08:00 +23°C° 0 mm 2 m/S 747 mmHg 66%
09:00 +25°C° 0 mm 2 m/S 747 mmHg 63%
10:00 +26°C° 0 mm 2 m/S 747 mmHg 59%
11:00 +27°C° 0 mm 2 m/S 747 mmHg 55%
12:00 +27°C° 0 mm 2 m/S 747 mmHg 53%
13:00 +28°C° 0 mm 1 m/S 746 mmHg 52%
14:00 +28°C° 0 mm 1 m/S 746 mmHg 50%
15:00 +28°C° 0 mm 1 m/S 746 mmHg 53%
16:00 +28°C° 0 mm 1 m/S 745 mmHg 56%
17:00 +28°C° 0 mm 1 m/S 745 mmHg 59%
18:00 +26°C° 0 mm 1 m/S 745 mmHg 61%
19:00 +24°C° 0 mm 1 m/S 745 mmHg 64%
20:00 +23°C° 0 mm 2 m/S 745 mmHg 66%
21:00 +21°C° 0 mm 2 m/S 745 mmHg 68%
22:00 +20°C° 0 mm 2 m/S 744 mmHg 70%
23:00 +20°C° 0 mm 2 m/S 744 mmHg 72%
Mehr zeigen